Time,TemperatureF,DewpointF,PressureIn,WindDirection,WindDirectionDegrees,WindSpeedMPH,WindSpeedGustMPH,Humidity,HourlyPrecipIn,Conditions,Clouds,dailyrainin,SoftwareType,DateUTC
2013-04-02 00:05:00,53.0,47.0,29.67,East,101,4.0,6.0,80,0.00,,,0.27,Wunderground v.1.13,2013-04-01 22:05:00,
2013-04-02 00:20:00,52.7,47.0,29.67,ESE,106,4.0,6.0,81,0.00,,,0.27,Wunderground v.1.13,2013-04-01 22:20:00,
2013-04-02 00:30:00,52.6,46.9,29.67,SE,129,4.0,5.0,81,0.00,,,0.27,Wunderground v.1.13,2013-04-01 22:30:00,
2013-04-02 00:40:00,52.5,46.8,29.67,ESE,109,3.0,6.0,81,0.00,,,0.27,Wunderground v.1.13,2013-04-01 22:40:00,
2013-04-02 00:50:00,52.4,46.4,29.67,East,88,3.0,3.0,80,0.00,,,0.27,Wunderground v.1.13,2013-04-01 22:50:00,
2013-04-02 00:55:00,52.3,46.3,29.68,East,94,1.0,1.0,80,0.00,,,0.27,Wunderground v.1.13,2013-04-01 22:55:00,
2013-04-02 01:00:00,52.3,46.3,29.68,East,94,1.0,1.0,80,0.00,,,0.27,Wunderground v.1.13,2013-04-01 23:00:00,
2013-04-02 01:09:00,52.5,46.5,29.68,ENE,73,1.0,4.0,80,0.00,,,0.27,Wunderground v.1.13,2013-04-01 23:09:00,
2013-04-02 01:15:00,52.6,46.6,29.68,ENE,73,1.0,1.0,80,0.00,,,0.27,Wunderground v.1.13,2013-04-01 23:15:00,
2013-04-02 01:25:00,52.2,46.2,29.68,ENE,73,0.0,3.0,80,0.00,,,0.27,Wunderground v.1.13,2013-04-01 23:25:00,
2013-04-02 01:35:00,51.9,45.9,29.68,ENE,73,0.0,3.0,80,0.00,,,0.27,Wunderground v.1.13,2013-04-01 23:35:00,
2013-04-02 01:50:00,51.4,46.1,29.69,ENE,73,0.0,0.0,82,0.00,,,0.27,Wunderground v.1.13,2013-04-01 23:50:00,
2013-04-02 01:55:00,51.3,46.0,29.69,ENE,73,0.0,0.0,82,0.00,,,0.27,Wunderground v.1.13,2013-04-01 23:55:00,
2013-04-02 02:00:00,51.3,46.0,29.69,NNE,16,1.0,5.0,82,0.00,,,0.27,Wunderground v.1.13,2013-04-02 00:00:00,
2013-04-02 02:10:00,50.6,45.6,29.68,NNE,16,0.0,0.0,83,0.00,,,0.00,Wunderground v.1.13,2013-04-02 00:10:00,
2013-04-02 02:15:00,50.5,45.5,29.69,NNE,17,0.0,0.0,83,0.00,,,0.00,Wunderground v.1.13,2013-04-02 00:15:00,
2013-04-02 02:25:00,50.0,45.4,29.69,NNE,16,0.0,2.0,84,0.00,,,0.00,Wunderground v.1.13,2013-04-02 00:25:00,
2013-04-02 02:30:00,49.9,45.3,29.68,NNE,16,0.0,0.0,84,0.00,,,0.00,Wunderground v.1.13,2013-04-02 00:30:00,
2013-04-02 02:40:00,49.8,45.2,29.69,NNE,16,0.0,0.0,84,0.00,,,0.00,Wunderground v.1.13,2013-04-02 00:40:00,
2013-04-02 02:55:00,49.7,45.4,29.68,NNE,16,0.0,0.0,85,0.00,,,0.00,Wunderground v.1.13,2013-04-02 00:55:00,
2013-04-02 03:00:00,49.5,45.2,29.68,NNE,16,0.0,0.0,85,0.00,,,0.00,Wunderground v.1.13,2013-04-02 01:00:00,
2013-04-02 03:10:00,49.5,45.2,29.68,NNE,16,0.0,1.0,85,0.00,,,0.00,Wunderground v.1.13,2013-04-02 01:10:00,
2013-04-02 03:15:00,49.5,45.2,29.68,NNE,15,0.0,4.0,85,0.00,,,0.00,Wunderground v.1.13,2013-04-02 01:15:00,
2013-04-02 03:25:00,49.5,45.2,29.68,NNE,13,0.0,1.0,85,0.00,,,0.00,Wunderground v.1.13,2013-04-02 01:25:00,
2013-04-02 03:35:00,49.7,45.4,29.68,NNE,13,1.0,1.0,85,0.00,,,0.00,Wunderground v.1.13,2013-04-02 01:35:00,
2013-04-02 03:40:00,49.7,45.4,29.68,NW,325,1.0,6.0,85,0.00,,,0.00,Wunderground v.1.13,2013-04-02 01:40:00,
2013-04-02 03:50:00,49.8,45.5,29.68,NW,317,2.0,4.0,85,0.00,,,0.00,Wunderground v.1.13,2013-04-02 01:50:00,
2013-04-02 04:00:00,50.1,45.8,29.68,NW,316,2.0,2.0,85,0.00,,,0.00,Wunderground v.1.13,2013-04-02 02:00:00,
2013-04-02 04:05:00,50.2,45.6,29.68,NW,316,1.0,1.0,84,0.00,,,0.00,Wunderground v.1.13,2013-04-02 02:05:00,
2013-04-02 04:10:00,50.3,45.6,29.68,NW,316,1.0,2.0,84,0.00,,,0.00,Wunderground v.1.13,2013-04-02 02:10:00,
2013-04-02 04:15:00,50.4,45.7,29.68,NW,316,1.0,1.0,84,0.00,,,0.00,Wunderground v.1.13,2013-04-02 02:15:00,
2013-04-02 04:30:00,50.2,45.2,29.68,NW,316,0.0,0.0,83,0.00,,,0.00,Wunderground v.1.13,2013-04-02 02:30:00,
2013-04-02 04:40:00,50.1,45.5,29.68,NW,316,0.0,0.0,84,0.00,,,0.00,Wunderground v.1.13,2013-04-02 02:40:00,
2013-04-02 04:49:00,50.5,45.5,29.67,NW,315,0.0,0.0,83,0.00,,,0.00,Wunderground v.1.13,2013-04-02 02:49:00,
2013-04-02 04:55:00,50.4,45.4,29.68,NW,315,0.0,0.0,83,0.00,,,0.00,Wunderground v.1.13,2013-04-02 02:55:00,
2013-04-02 05:00:00,50.3,45.3,29.67,NW,311,0.0,4.0,83,0.00,,,0.00,Wunderground v.1.13,2013-04-02 03:00:00,
2013-04-02 05:10:00,49.9,44.9,29.68,NW,309,1.0,1.0,83,0.00,,,0.00,Wunderground v.1.13,2013-04-02 03:10:00,
2013-04-02 05:20:00,49.4,44.8,29.68,WNW,286,1.0,5.0,84,0.00,,,0.00,Wunderground v.1.13,2013-04-02 03:20:00,
2013-04-02 05:25:00,49.1,44.5,29.68,West,277,2.0,2.0,84,0.00,,,0.00,Wunderground v.1.13,2013-04-02 03:25:00,
2013-04-02 05:35:00,49.0,44.7,29.68,West,276,1.0,7.0,85,0.00,,,0.00,Wunderground v.1.13,2013-04-02 03:35:00,
2013-04-02 05:45:00,48.8,44.8,29.68,West,272,2.0,4.0,86,0.00,,,0.00,Wunderground v.1.13,2013-04-02 03:45:00,
2013-04-02 05:55:00,49.0,45.0,29.68,West,270,3.0,5.0,86,0.00,,,0.00,Wunderground v.1.13,2013-04-02 03:55:00,
2013-04-02 06:00:00,49.2,45.2,29.68,West,269,3.0,5.0,86,0.00,,,0.00,Wunderground v.1.13,2013-04-02 04:00:00,
2013-04-02 06:05:00,49.4,45.4,29.68,WNW,290,3.0,5.0,86,0.00,,,0.00,Wunderground v.1.13,2013-04-02 04:05:00,
2013-04-02 06:10:00,49.7,45.7,29.68,WNW,288,4.0,4.0,86,0.00,,,0.00,Wunderground v.1.13,2013-04-02 04:10:00,
2013-04-02 06:15:00,50.0,46.0,29.68,WNW,286,3.0,3.0,86,0.00,,,0.00,Wunderground v.1.13,2013-04-02 04:15:00,
2013-04-02 06:25:00,50.3,46.0,29.68,WNW,283,1.0,5.0,85,0.00,,,0.00,Wunderground v.1.13,2013-04-02 04:25:00,
2013-04-02 06:35:00,50.4,46.1,29.68,WNW,282,2.0,2.0,85,0.00,,,0.00,Wunderground v.1.13,2013-04-02 04:35:00,
2013-04-02 06:45:00,50.4,45.7,29.68,WSW,252,1.0,4.0,84,0.00,,,0.00,Wunderground v.1.13,2013-04-02 04:45:00,
2013-04-02 06:55:00,50.2,45.6,29.68,SW,236,2.0,4.0,84,0.00,,,0.00,Wunderground v.1.13,2013-04-02 04:55:00,
2013-04-02 07:05:00,50.3,46.0,29.68,SW,230,2.0,3.0,85,0.00,,,0.00,Wunderground v.1.13,2013-04-02 05:05:00,
2013-04-02 07:14:00,50.4,46.1,29.69,WSW,256,2.0,2.0,85,0.00,,,0.00,Wunderground v.1.13,2013-04-02 05:14:00,
2013-04-02 07:20:00,50.5,46.2,29.69,WSW,255,1.0,1.0,85,0.00,,,0.00,Wunderground v.1.13,2013-04-02 05:20:00,
2013-04-02 07:25:00,50.5,46.2,29.69,WSW,248,1.0,5.0,85,0.00,,,0.00,Wunderground v.1.13,2013-04-02 05:25:00,
2013-04-02 07:34:00,50.6,46.3,29.69,West,263,2.0,7.0,85,0.00,,,0.00,Wunderground v.1.13,2013-04-02 05:34:00,
2013-04-02 07:40:00,50.5,46.2,29.69,West,261,2.0,2.0,85,0.00,,,0.00,Wunderground v.1.13,2013-04-02 05:40:00,
2013-04-02 07:45:00,50.5,46.2,29.69,West,260,1.0,5.0,85,0.00,,,0.00,Wunderground v.1.13,2013-04-02 05:45:00,
2013-04-02 07:55:00,50.2,45.9,29.69,WSW,254,1.0,1.0,85,0.00,,,0.00,Wunderground v.1.13,2013-04-02 05:55:00,
2013-04-02 08:05:00,49.9,45.9,29.70,WSW,253,1.0,1.0,86,0.00,,,0.00,Wunderground v.1.13,2013-04-02 06:05:00,
2013-04-02 08:10:00,49.9,45.9,29.70,WSW,253,0.0,0.0,86,0.00,,,0.00,Wunderground v.1.13,2013-04-02 06:10:00,
2013-04-02 08:20:00,50.0,46.0,29.70,WSW,253,0.0,1.0,86,0.00,,,0.00,Wunderground v.1.13,2013-04-02 06:20:00,
2013-04-02 08:30:00,50.6,46.6,29.70,WSW,251,1.0,2.0,86,0.00,,,0.00,Wunderground v.1.13,2013-04-02 06:30:00,
2013-04-02 08:35:00,51.0,47.0,29.70,WSW,251,1.0,2.0,86,0.00,,,0.00,Wunderground v.1.13,2013-04-02 06:35:00,
2013-04-02 08:45:00,51.6,47.5,29.71,SW,229,2.0,2.0,86,0.00,,,0.00,Wunderground v.1.13,2013-04-02 06:45:00,
2013-04-02 08:55:00,52.2,47.8,29.70,SW,229,1.0,4.0,85,0.00,,,0.00,Wunderground v.1.13,2013-04-02 06:55:00,
2013-04-02 09:05:00,53.1,48.7,29.70,SW,228,1.0,3.0,85,0.00,,,0.00,Wunderground v.1.13,2013-04-02 07:05:00,
2013-04-02 09:10:00,53.7,49.3,29.71,SW,228,1.0,2.0,85,0.00,,,0.00,Wunderground v.1.13,2013-04-02 07:10:00,
2013-04-02 09:20:00,54.6,49.9,29.71,WSW,258,3.0,3.0,84,0.00,,,0.00,Wunderground v.1.13,2013-04-02 07:20:00,
2013-04-02 09:30:00,55.4,50.3,29.71,WSW,250,2.0,5.0,83,0.00,,,0.00,Wunderground v.1.13,2013-04-02 07:30:00,
2013-04-02 09:35:00,55.9,50.8,29.71,SW,232,2.0,2.0,83,0.00,,,0.00,Wunderground v.1.13,2013-04-02 07:35:00,
2013-04-02 09:45:00,56.4,50.3,29.72,West,265,2.0,2.0,80,0.00,,,0.00,Wunderground v.1.13,2013-04-02 07:45:00,
2013-04-02 09:50:00,57.0,50.5,29.72,West,265,2.0,4.0,79,0.00,,,0.00,Wunderground v.1.13,2013-04-02 07:50:00,
2013-04-02 09:55:00,57.6,50.8,29.72,SSW,212,2.0,6.0,78,0.00,,,0.00,Wunderground v.1.13,2013-04-02 07:55:00,
2013-04-02 10:05:00,58.4,50.5,29.72,West,264,3.0,3.0,75,0.00,,,0.00,Wunderground v.1.13,2013-04-02 08:05:00,
2013-04-02 10:10:00,58.6,49.6,29.72,West,273,4.0,7.0,72,0.00,,,0.00,Wunderground v.1.13,2013-04-02 08:10:00,
2013-04-02 10:20:00,59.0,48.8,29.72,West,279,5.0,9.0,69,0.00,,,0.00,Wunderground v.1.13,2013-04-02 08:20:00,
2013-04-02 10:25:00,59.3,48.3,29.73,WSW,257,5.0,10.0,67,0.00,,,0.00,Wunderground v.1.13,2013-04-02 08:25:00,
2013-04-02 10:40:00,59.5,45.6,29.74,West,268,7.0,7.0,60,0.00,,,0.00,Wunderground v.1.13,2013-04-02 08:40:00,
2013-04-02 10:50:00,59.6,46.6,29.74,NNW,336,6.0,8.0,62,0.00,,,0.00,Wunderground v.1.13,2013-04-02 08:50:00,
2013-04-02 10:55:00,60.2,45.8,29.74,WNW,297,6.0,6.0,59,0.00,,,0.00,Wunderground v.1.13,2013-04-02 08:55:00,
2013-04-02 11:05:00,60.5,45.6,29.74,NW,305,6.0,8.0,58,0.00,,,0.00,Wunderground v.1.13,2013-04-02 09:05:00,
2013-04-02 11:20:00,60.5,44.7,29.74,West,275,7.0,7.0,56,0.00,,,0.00,Wunderground v.1.13,2013-04-02 09:20:00,
2013-04-02 11:30:00,60.3,45.0,29.75,WNW,287,6.0,6.0,57,0.00,,,0.00,Wunderground v.1.13,2013-04-02 09:30:00,
2013-04-02 11:35:00,60.1,44.8,29.75,WNW,295,6.0,6.0,57,0.00,,,0.00,Wunderground v.1.13,2013-04-02 09:35:00,
2013-04-02 11:45:00,60.7,44.9,29.74,WNW,295,7.0,9.0,56,0.00,,,0.00,Wunderground v.1.13,2013-04-02 09:45:00,
2013-04-02 12:00:00,60.2,44.0,29.74,NW,311,7.0,10.0,55,0.00,,,0.00,Wunderground v.1.13,2013-04-02 10:00:00,
2013-04-02 12:10:00,61.1,44.3,29.74,WNW,288,8.0,10.0,54,0.00,,,0.00,Wunderground v.1.13,2013-04-02 10:10:00,
2013-04-02 12:15:00,61.4,44.1,29.74,NW,319,7.0,12.0,53,0.00,,,0.00,Wunderground v.1.13,2013-04-02 10:15:00,
2013-04-02 12:30:00,62.0,45.2,29.74,West,265,8.0,13.0,54,0.00,,,0.00,Wunderground v.1.13,2013-04-02 10:30:00,
2013-04-02 12:40:00,62.0,44.7,29.74,WNW,285,9.0,9.0,53,0.00,,,0.00,Wunderground v.1.13,2013-04-02 10:40:00,
2013-04-02 12:50:00,62.2,44.3,29.75,WNW,292,7.0,11.0,52,0.00,,,0.00,Wunderground v.1.13,2013-04-02 10:50:00,
2013-04-02 13:00:00,62.6,44.7,29.75,West,263,7.0,12.0,52,0.00,,,0.00,Wunderground v.1.13,2013-04-02 11:00:00,
2013-04-02 13:10:00,62.8,44.9,29.75,NW,315,7.0,7.0,52,0.00,,,0.00,Wunderground v.1.13,2013-04-02 11:10:00,
2013-04-02 13:20:00,62.7,44.8,29.75,NNW,338,7.0,7.0,52,0.00,,,0.00,Wunderground v.1.13,2013-04-02 11:20:00,
2013-04-02 13:30:00,62.3,43.9,29.74,NW,315,8.0,8.0,51,0.00,,,0.00,Wunderground v.1.13,2013-04-02 11:30:00,
2013-04-02 13:40:00,63.1,44.2,29.74,NW,324,7.0,7.0,50,0.00,,,0.00,Wunderground v.1.13,2013-04-02 11:40:00,
2013-04-02 13:50:00,62.7,43.3,29.75,NW,314,8.0,8.0,49,0.00,,,0.00,Wunderground v.1.13,2013-04-02 11:50:00,
2013-04-02 13:59:00,62.6,44.2,29.74,WSW,245,8.0,12.0,51,0.00,,,0.00,Wunderground v.1.13,2013-04-02 11:59:00,
2013-04-02 14:05:00,63.4,43.4,29.74,WSW,244,8.0,8.0,48,0.00,,,0.00,Wunderground v.1.13,2013-04-02 12:05:00,
2013-04-02 14:15:00,63.8,44.3,29.74,NW,320,7.0,13.0,49,0.00,,,0.00,Wunderground v.1.13,2013-04-02 12:15:00,
2013-04-02 14:25:00,63.7,43.6,29.74,NW,317,7.0,13.0,48,0.00,,,0.00,Wunderground v.1.13,2013-04-02 12:25:00,
2013-04-02 14:30:00,63.8,43.7,29.75,NNW,348,6.0,10.0,48,0.00,,,0.00,Wunderground v.1.13,2013-04-02 12:30:00,
2013-04-02 14:35:00,63.8,44.8,29.75,NNW,332,7.0,14.0,50,0.00,,,0.00,Wunderground v.1.13,2013-04-02 12:35:00,
2013-04-02 14:45:00,63.1,43.6,29.75,NW,312,7.0,7.0,49,0.00,,,0.00,Wunderground v.1.13,2013-04-02 12:45:00,
2013-04-02 15:05:00,63.7,41.9,29.75,NW,323,7.0,7.0,45,0.00,,,0.00,Wunderground v.1.13,2013-04-02 13:05:00,
2013-04-02 15:15:00,64.2,42.4,29.75,NNE,19,7.0,7.0,45,0.00,,,0.00,Wunderground v.1.13,2013-04-02 13:15:00,
2013-04-02 15:20:00,64.1,42.3,29.75,NNE,17,6.0,6.0,45,0.00,,,0.00,Wunderground v.1.13,2013-04-02 13:20:00,
2013-04-02 15:35:00,63.7,41.4,29.75,WNW,295,4.0,6.0,44,0.00,,,0.00,Wunderground v.1.13,2013-04-02 13:35:00,
2013-04-02 15:45:00,64.5,41.5,29.75,NNW,348,5.0,10.0,43,0.00,,,0.00,Wunderground v.1.13,2013-04-02 13:45:00,
2013-04-02 15:50:00,63.9,41.5,29.75,West,263,6.0,12.0,44,0.00,,,0.00,Wunderground v.1.13,2013-04-02 13:50:00,
2013-04-02 16:05:00,64.1,41.1,29.75,West,280,6.0,12.0,43,0.00,,,0.00,Wunderground v.1.13,2013-04-02 14:05:00,
2013-04-02 16:10:00,64.6,40.4,29.75,West,273,6.0,8.0,41,0.00,,,0.00,Wunderground v.1.13,2013-04-02 14:10:00,
2013-04-02 16:15:00,64.6,40.4,29.75,NW,312,6.0,20.0,41,0.00,,,0.00,Wunderground v.1.13,2013-04-02 14:15:00,
2013-04-02 16:20:00,64.4,41.4,29.75,WSW,241,9.0,9.0,43,0.00,,,0.00,Wunderground v.1.13,2013-04-02 14:20:00,
2013-04-02 16:30:00,64.1,40.5,29.75,West,263,7.0,10.0,42,0.00,,,0.00,Wunderground v.1.13,2013-04-02 14:30:00,
2013-04-02 16:40:00,63.5,40.6,29.75,West,265,8.0,8.0,43,0.00,,,0.00,Wunderground v.1.13,2013-04-02 14:40:00,
2013-04-02 16:50:00,63.6,39.5,29.75,WNW,289,9.0,9.0,41,0.00,,,0.00,Wunderground v.1.13,2013-04-02 14:50:00,
2013-04-02 16:55:00,63.7,39.5,29.75,West,281,8.0,8.0,41,0.00,,,0.00,Wunderground v.1.13,2013-04-02 14:55:00,
2013-04-02 17:05:00,64.4,40.2,29.75,West,281,6.0,6.0,41,0.00,,,0.00,Wunderground v.1.13,2013-04-02 15:05:00,
2013-04-02 17:25:00,64.6,40.4,29.75,West,269,8.0,14.0,41,0.00,,,0.00,Wunderground v.1.13,2013-04-02 15:25:00,
2013-04-02 17:30:00,64.4,40.8,29.75,WNW,289,8.0,12.0,42,0.00,,,0.00,Wunderground v.1.13,2013-04-02 15:30:00,
2013-04-02 17:40:00,64.4,40.8,29.75,West,264,8.0,9.0,42,0.00,,,0.00,Wunderground v.1.13,2013-04-02 15:40:00,
2013-04-02 17:45:00,64.7,40.4,29.75,West,277,7.0,7.0,41,0.00,,,0.00,Wunderground v.1.13,2013-04-02 15:45:00,
2013-04-02 17:55:00,64.7,39.8,29.75,WSW,257,7.0,7.0,40,0.00,,,0.00,Wunderground v.1.13,2013-04-02 15:55:00,
2013-04-02 18:05:00,64.1,40.5,29.75,WSW,256,8.0,12.0,42,0.00,,,0.00,Wunderground v.1.13,2013-04-02 16:05:00,
2013-04-02 18:15:00,63.9,40.3,29.75,West,266,9.0,9.0,42,0.00,,,0.00,Wunderground v.1.13,2013-04-02 16:15:00,
2013-04-02 18:21:00,64.1,39.9,29.75,West,275,8.0,8.0,41,0.00,,,0.00,Wunderground v.1.13,2013-04-02 16:21:00,
2013-04-02 18:30:00,64.0,39.8,29.75,West,279,8.0,20.0,41,0.00,,,0.00,Wunderground v.1.13,2013-04-02 16:30:00,
2013-04-02 18:40:00,63.5,40.0,29.76,WNW,298,10.0,10.0,42,0.00,,,0.00,Wunderground v.1.13,2013-04-02 16:40:00,
2013-04-02 18:50:00,63.9,41.0,29.76,West,263,7.0,9.0,43,0.00,,,0.00,Wunderground v.1.13,2013-04-02 16:50:00,
2013-04-02 19:00:00,63.6,41.3,29.77,WSW,257,7.0,7.0,44,0.00,,,0.00,Wunderground v.1.13,2013-04-02 17:00:00,
2013-04-02 19:10:00,63.4,41.1,29.77,WNW,289,6.0,6.0,44,0.00,,,0.00,Wunderground v.1.13,2013-04-02 17:10:00,
2013-04-02 19:15:00,63.3,41.6,29.77,West,281,7.0,7.0,45,0.00,,,0.00,Wunderground v.1.13,2013-04-02 17:15:00,
2013-04-02 19:20:00,63.3,41.6,29.77,WNW,297,6.0,8.0,45,0.00,,,0.00,Wunderground v.1.13,2013-04-02 17:20:00,
2013-04-02 19:30:00,62.8,41.1,29.77,WNW,284,6.0,11.0,45,0.00,,,0.00,Wunderground v.1.13,2013-04-02 17:30:00,
2013-04-02 19:40:00,62.6,40.9,29.78,WNW,282,6.0,6.0,45,0.00,,,0.00,Wunderground v.1.13,2013-04-02 17:40:00,
2013-04-02 19:50:00,62.2,40.6,29.77,SW,234,6.0,6.0,45,0.00,,,0.00,Wunderground v.1.13,2013-04-02 17:50:00,
2013-04-02 20:00:00,61.8,40.8,29.77,West,271,5.0,8.0,46,0.00,,,0.00,Wunderground v.1.13,2013-04-02 18:00:00,
2013-04-02 20:10:00,61.4,41.0,29.77,West,277,4.0,7.0,47,0.00,,,0.00,Wunderground v.1.13,2013-04-02 18:10:00,
2013-04-02 20:20:00,61.0,40.6,29.78,West,265,4.0,9.0,47,0.00,,,0.00,Wunderground v.1.13,2013-04-02 18:20:00,
2013-04-02 20:40:00,60.5,41.8,29.78,WNW,290,4.0,4.0,50,0.00,,,0.00,Wunderground v.1.13,2013-04-02 18:40:00,
2013-04-02 20:45:00,60.2,42.0,29.78,WSW,247,3.0,3.0,51,0.00,,,0.00,Wunderground v.1.13,2013-04-02 18:45:00,
2013-04-02 21:00:00,59.5,42.8,29.79,West,269,4.0,7.0,54,0.00,,,0.00,Wunderground v.1.13,2013-04-02 19:00:00,
2013-04-02 21:05:00,59.3,42.6,29.79,West,277,4.0,4.0,54,0.00,,,0.00,Wunderground v.1.13,2013-04-02 19:05:00,
2013-04-02 21:10:00,59.3,42.6,29.79,West,270,5.0,7.0,54,0.00,,,0.00,Wunderground v.1.13,2013-04-02 19:10:00,
2013-04-02 21:20:00,59.2,42.6,29.79,West,267,4.0,10.0,54,0.00,,,0.00,Wunderground v.1.13,2013-04-02 19:20:00,
2013-04-02 21:30:00,59.3,42.6,29.80,WSW,257,4.0,4.0,54,0.00,,,0.00,Wunderground v.1.13,2013-04-02 19:30:00,
2013-04-02 21:35:00,59.2,43.0,29.80,West,274,3.0,5.0,55,0.00,,,0.00,Wunderground v.1.13,2013-04-02 19:35:00,
2013-04-02 21:50:00,58.5,43.8,29.80,West,274,3.0,3.0,58,0.00,,,0.00,Wunderground v.1.13,2013-04-02 19:50:00,
2013-04-02 22:00:00,57.7,43.9,29.81,West,275,2.0,2.0,60,0.00,,,0.00,Wunderground v.1.13,2013-04-02 20:00:00,
2013-04-02 22:10:00,57.3,44.0,29.81,WNW,297,2.0,2.0,61,0.00,,,0.00,Wunderground v.1.13,2013-04-02 20:10:00,
2013-04-02 22:20:00,56.9,43.6,29.82,WNW,300,1.0,1.0,61,0.00,,,0.00,Wunderground v.1.13,2013-04-02 20:20:00,
2013-04-02 22:31:00,56.5,43.6,29.81,WNW,300,1.0,1.0,62,0.00,,,0.00,Wunderground v.1.13,2013-04-02 20:31:00,
2013-04-02 22:36:00,56.6,44.1,29.82,West,275,2.0,5.0,63,0.00,,,0.00,Wunderground v.1.13,2013-04-02 20:36:00,
2013-04-02 22:50:00,57.1,44.2,29.82,West,268,3.0,7.0,62,0.00,,,0.00,Wunderground v.1.13,2013-04-02 20:50:00,
2013-04-02 23:00:00,57.2,44.7,29.82,WNW,296,3.0,3.0,63,0.00,,,0.00,Wunderground v.1.13,2013-04-02 21:00:00,
2013-04-02 23:05:00,57.3,44.4,29.82,West,281,3.0,3.0,62,0.00,,,0.00,Wunderground v.1.13,2013-04-02 21:05:00,
2013-04-02 23:30:00,57.4,44.5,29.82,West,274,4.0,4.0,62,0.00,,,0.00,Wunderground v.1.13,2013-04-02 21:30:00,
2013-04-02 23:45:00,58.0,43.3,29.82,WNW,293,5.0,5.0,58,0.00,,,0.00,Wunderground v.1.13,2013-04-02 21:45:00,
2013-04-02 23:50:00,58.2,43.9,29.82,WNW,284,5.0,5.0,59,0.00,,,0.00,Wunderground v.1.13,2013-04-02 21:50:00,